Location: Bratislava
(48.1500°N, 17.1170°E)
Time: 07:52:34
(UTC+02:00)

Vanguard 2 - All Passes

Search period start: 08 June 2026 00:00
Search period end: 18 June 2026 00:00
Orbit: 553 x 2894 km, 32.9° (Epoch: 7 June)

Date Brightness Start Highest point End Pass type
(mag) Time Alt. Az. Time Alt. Az. Time Alt. Az.
8 Jun - 00:18:16 10° WSW 00:26:35 28° SSW 00:38:04 10° SE visible
8 Jun - 02:29:13 10° WSW 02:35:31 15° SSW 02:42:45 10° S visible
8 Jun - 20:16:52 10° SSW 20:21:49 23° SSE 20:28:45 10° ESE daylight
8 Jun - 22:22:33 10° WSW 22:29:23 31° S 22:39:35 10° SE visible
9 Jun - 00:30:11 10° WSW 00:37:57 24° SSW 00:48:23 10° SSE visible
9 Jun - 02:44:37 10° SW 02:46:46 10° SW 02:49:02 10° SSW visible
9 Jun - 20:28:05 10° SW 20:33:06 24° SSE 20:40:13 10° ESE daylight
9 Jun - 22:34:06 10° WSW 22:40:47 28° S 22:50:33 10° SE visible
10 Jun - 00:42:20 10° WSW 00:49:20 20° SSW 00:58:21 10° SSE visible
10 Jun - 18:36:01 10° SSE 18:37:45 11° SSE 18:39:41 10° SE daylight
10 Jun - 20:39:23 10° SW 20:44:25 25° S 20:51:35 10° ESE daylight
10 Jun - 22:45:47 10° WSW 22:52:12 26° S 23:01:21 10° SE visible
11 Jun - 00:54:55 10° WSW 01:00:42 16° SSW 01:07:45 10° S visible
11 Jun - 18:46:22 10° S 18:48:56 13° SSE 18:51:57 10° SE daylight
11 Jun - 20:50:48 10° SW 20:55:46 24° S 21:02:50 10° SE daylight
11 Jun - 22:57:35 10° WSW 23:03:36 22° SSW 23:11:55 10° SSE visible
12 Jun - 01:08:39 10° SW 01:12:03 12° SSW 01:15:52 10° S visible
12 Jun - 18:57:12 10° SSW 19:00:10 15° SSE 19:03:47 10° SE daylight
12 Jun - 21:02:18 10° SW 21:07:09 23° S 21:13:57 10° SE daylight
12 Jun - 23:09:36 10° SW 23:15:01 19° SSW 23:22:11 10° SSE visible
13 Jun - 19:08:16 10° SSW 19:11:26 16° SSE 19:15:22 10° SE daylight
13 Jun - 21:13:54 10° SW 21:18:32 21° S 21:24:55 10° SE daylight
13 Jun - 23:21:58 10° SW 23:26:26 15° SSW 23:31:57 10° S visible
14 Jun - 19:19:30 10° SSW 19:22:45 17° SSE 19:26:48 10° SE daylight
14 Jun - 21:25:38 10° SW 21:29:57 19° S 21:35:41 10° SE visible
14 Jun - 23:35:24 10° SW 23:37:51 11° SSW 23:40:34 10° S visible
15 Jun - 19:30:53 10° SSW 19:34:05 17° S 19:38:04 10° SE daylight
15 Jun - 21:37:34 10° SW 21:41:22 16° S 21:46:09 10° SSE visible
16 Jun - 19:42:23 10° SW 19:45:26 16° S 19:49:11 10° SE daylight
16 Jun - 21:49:56 10° SW 21:52:47 13° SSW 21:56:07 10° S visible
17 Jun - 17:48:55 10° S 17:50:01 11° SSE 17:51:08 10° SSE daylight
17 Jun - 19:54:05 10° SW 19:56:49 14° S 20:00:05 10° SSE daylight
